Location: Unspecified
(0.0000°N, 0.0000°E)
Time: 09:24:32
(UTC+00:00)

Vanguard 2 - All Passes

Search period start: 25 May 2015 00:00
Search period end: 04 June 2015 00:00
Orbit: 554 x 2943 km, 32.9° (Epoch: 24 May)

Date Brightness Start Highest point End Pass type
(mag) Time Alt. Az. Time Alt. Az. Time Alt. Az.
25 May - 02:09:29 10° NNW 02:18:39 17° N 02:26:29 10° NE visible
25 May - 04:21:46 10° NW 04:33:10 34° NNE 04:40:42 10° E visible
25 May - 06:34:03 10° WNW 06:43:55 74° SW 06:49:44 10° SE daylight
25 May - 15:24:12 10° S 15:27:23 14° SE 15:31:50 10° ESE daylight
25 May - 17:28:34 10° SW 17:36:49 66° SE 17:50:49 10° ENE daylight
25 May - 19:37:40 10° W 19:48:35 49° NNW 20:04:26 10° NE visible
25 May - 21:52:20 10° WNW 22:03:56 23° NNW 22:16:26 10° NNE visible
26 May - 00:12:44 10° NNW 00:21:53 16° N 00:30:24 10° NNE visible
26 May - 02:28:22 10° NNW 02:39:02 21° NNE 02:47:39 10° ENE visible
26 May - 04:40:25 10° NW 04:52:45 47° NNE 05:00:19 10° E visible
26 May - 06:53:38 10° WNW 07:02:40 47° SW 07:08:12 10° SSE daylight
26 May - 15:41:16 10° S 15:46:18 22° SE 15:53:44 10° E daylight
26 May - 17:47:14 10° SW 17:55:46 89° SE 18:10:17 10° NE daylight
26 May - 19:57:28 10° W 20:08:20 38° NNW 20:23:10 10° NE visible
26 May - 22:13:49 10° NW 22:24:28 19° NNW 22:35:30 10° NNE visible
27 May - 00:33:16 10° NNW 00:42:43 16° N 00:51:31 10° NE visible
27 May - 02:47:02 10° NNW 02:59:12 27° NNE 03:08:22 10° ENE visible
27 May - 04:59:16 10° NW 05:12:04 66° NNE 05:19:34 10° ESE visible
27 May - 07:13:43 10° W 07:21:20 29° SW 07:26:20 10° SSE daylight
27 May - 15:59:06 10° SSW 16:05:04 34° SE 16:14:30 10° E daylight
27 May - 18:06:11 10° WSW 18:14:53 69° NNW 18:29:26 10° NE visible
27 May - 20:17:43 10° WNW 20:28:18 29° NNW 20:41:52 10° NNE visible
27 May - 22:35:28 10° NW 22:45:12 17° N 22:55:05 10° NNE visible
28 May - 00:52:57 10° NNW 01:03:26 18° N 01:13:00 10° NE visible
28 May - 03:05:41 10° NW 03:19:10 35° NNE 03:28:35 10° E visible
28 May - 05:18:23 10° NW 05:31:08 89° SW 05:38:29 10° SE visible
28 May - 07:34:34 10° W 07:40:04 18° SW 07:43:58 10° S daylight
28 May - 16:17:18 10° SW 16:23:46 51° SE 16:34:36 10° ENE daylight
28 May - 18:25:25 10° WSW 18:34:14 51° NNW 18:48:20 10° NE visible
28 May - 20:38:26 10° WNW 20:48:30 23° NNW 21:00:36 10° NNE visible
28 May - 22:56:49 10° NNW 23:06:03 16° N 23:15:25 10° NNE visible
29 May - 01:12:05 10° NNW 01:23:58 22° NNE 01:34:21 10° ENE visible
29 May - 03:24:22 10° NW 03:38:53 46° NNE 03:48:23 10° E visible
29 May - 05:37:49 10° WNW 05:50:01 63° SW 05:57:08 10° SE daylight
29 May - 07:57:39 10° SW 07:58:58 10° SW 07:59:43 10° SSW daylight
29 May - 14:31:41 10° SSE 14:33:51 12° SE 14:36:49 10° ESE daylight
29 May - 16:35:49 10° SW 16:42:33 75° SE 16:54:12 10° ENE daylight
29 May - 18:45:01 10° W 18:53:50 38° NNW 19:07:04 10° NE visible
29 May - 20:59:36 10° NW 21:08:55 19° N 21:19:33 10° NNE visible
29 May - 23:17:27 10° NNW 23:26:55 16° N 23:36:35 10° NE visible
30 May - 01:30:54 10° NNW 01:44:17 27° NNE 01:55:19 10° ENE visible
30 May - 03:43:12 10° NW 03:58:22 61° NNE 04:07:47 10° ESE visible
30 May - 05:57:41 10° WNW 06:08:46 43° SW 06:15:31 10° SSE daylight
30 May - 14:48:33 10° S 14:52:39 21° SE 14:58:31 10° E daylight
30 May - 16:54:35 10° WSW 17:01:30 76° NNW 17:13:27 10° NE daylight
30 May - 19:05:01 10° WNW 19:13:39 29° NNW 19:25:41 10° NNE visible
30 May - 21:21:01 10° NW 21:29:32 16° N 21:38:56 10° NNE visible
30 May - 23:37:16 10° NNW 23:47:43 18° N 23:58:15 10° NE visible
31 May - 01:49:37 10° NW 02:04:22 34° NNE 02:15:48 10° E visible
31 May - 04:02:13 10° NW 04:17:37 81° NE 04:26:52 10° ESE visible
31 May - 06:18:05 10° W 06:27:30 29° SW 06:33:35 10° SSE daylight
31 May - 15:06:25 10° SSW 15:11:20 35° SE 15:18:56 10° ENE daylight
31 May - 17:13:41 10° WSW 17:20:41 53° NNW 17:32:23 10° NE daylight
31 May - 19:25:31 10° WNW 19:33:42 22° NNW 19:44:16 10° NNE visible
31 May - 21:42:17 10° NNW 21:50:17 15° N 21:59:05 10° NNE visible
31 May - 23:56:29 10° NNW 00:08:20 21° NNE 00:19:56 10° ENE visible
01 Jun - 02:08:18 10° NW 02:24:13 44° NNE 02:35:50 10° E visible
01 Jun - 04:21:32 10° WNW 04:36:39 77° SW 04:45:41 10° SE visible
01 Jun - 06:39:14 10° W 06:46:21 19° SW 06:51:14 10° S daylight
01 Jun - 15:24:41 10° SW 15:30:00 58° SE 15:38:44 10° ENE daylight
01 Jun - 17:33:06 10° W 17:40:07 38° NNW 17:51:05 10° NE daylight
01 Jun - 19:46:29 10° NW 19:53:56 18° N 20:02:56 10° NNE visible
01 Jun - 22:02:54 10° NNW 22:11:05 15° N 22:20:12 10° NE visible
02 Jun - 00:15:21 10° NNW 00:28:45 26° NNE 00:41:17 10° ENE visible
02 Jun - 02:27:05 10° NW 02:43:51 57° NNE 02:55:27 10° ESE visible
02 Jun - 04:41:10 10° WNW 04:55:32 57° SW 05:04:14 10° SE visible
02 Jun - 07:01:54 10° WSW 07:05:23 12° SW 07:07:50 10° SSW daylight
02 Jun - 13:38:52 10° SSE 13:40:31 12° SE 13:42:38 10° ESE daylight
02 Jun - 15:43:18 10° SW 15:48:48 88° NW 15:58:03 10° NE daylight
02 Jun - 17:52:58 10° WNW 17:59:46 27° NNW 18:09:35 10° NNE daylight
02 Jun - 20:07:50 10° NW 20:14:22 15° N 20:21:54 10° NNE visible
02 Jun - 22:22:43 10° NNW 22:31:52 17° N 22:42:05 10° NE visible
03 Jun - 00:34:02 10° NNW 00:48:55 33° NNE 01:02:08 10° E visible
03 Jun - 02:46:00 10° NW 03:03:14 73° NNE 03:14:43 10° ESE visible
03 Jun - 05:01:16 10° WNW 05:14:22 41° SW 05:22:33 10° SSE visible
03 Jun - 13:55:46 10° S 13:59:17 22° SE 14:03:59 10° E daylight
03 Jun - 16:02:15 10° WSW 16:07:50 56° NNW 16:17:01 10° NE daylight
03 Jun - 18:13:19 10° WNW 18:19:38 20° NNW 18:27:56 10° NNE visible
03 Jun - 20:29:11 10° NNW 20:34:57 13° N 20:41:31 10° NNE visible
03 Jun - 22:41:54 10° NNW 22:52:29 20° NNE 23:04:11 10° ENE visible
